Flag for U.S.A. Weather past 2 weeks in Cleveland, Tennessee, U.S.A.

Now
36 °F

Overcast.


Feels Like: 28 °F
Forecast: 26 / 46 °F
Wind: 13 mph from North

Location: Lovell Field

Current Time: Jan 28, 2015 at 1:56:18 AM

Latest Report: Jan 28, 2015 at 12:53 AM


Visibility: 10 mi

Pressure: 30.19 "Hg

Humidity: 64%

Dew point: 25 °F

Location of ClevelandLocation

Historic Weather in Cleveland — Graph

°F

Cleveland temperature yesterday

Maximum temperature yesterday: 43 °F (at 12:53 PM)
Minimum temperature yesterday: 35 °F (at 12:53 AM)
Average temperature yesterday: 38 °F

Past Weeks' High & Low Weather Summary

 TemperatureHumidityPressure
High67 °F (Jan 20, 2:53 PM)97% (Jan 15, 4:53 PM)30.37 "Hg (Jan 15, 4:53 PM)
Low26 °F (Jan 17, 7:53 AM)21% (Jan 19, 2:53 PM)29.70 "Hg (Jan 25, 3:53 PM)
Average42 °F71%30.09 "Hg
* Reported Jan 13 12:53 AM — Jan 28 12:53 AM, Cleveland, Weather by CustomWeather, © 2014

Note: Actual official high and low records may vary slightly from our data, if they occured in-between our weather recording intervals... More about our weather records

Advertising

Cleveland weather history for previous 24 hours

 ConditionsComfort  
Time TempWeatherWind HumidityBarometerVisibility
12:53 AM
Jan 28
36 °FOvercast.13 mph64%30.19 "Hg10 mi
11:53 PM
Jan 27
37 °FOvercast.16 mph70%30.19 "Hg10 mi
10:53 PM38 °FOvercast.14 mph70%30.18 "Hg10 mi
9:53 PM38 °FOvercast.9 mph68%30.17 "Hg10 mi
8:53 PM39 °FPassing clouds.16 mph65%30.16 "Hg10 mi
7:53 PM39 °FMostly cloudy.13 mph67%30.15 "Hg10 mi
6:53 PM40 °FMostly cloudy.16 mph68%30.14 "Hg10 mi
5:53 PM40 °FPartly sunny.12 mph70%30.11 "Hg10 mi
4:53 PM41 °FMostly cloudy.9 mph67%30.08 "Hg10 mi
3:53 PM41 °FPartly sunny.12 mph67%30.06 "Hg10 mi
2:53 PM42 °FPartly sunny.12 mph65%30.04 "Hg10 mi
1:53 PM42 °FPartly sunny.14 mph65%30.03 "Hg10 mi
12:53 PM43 °FPartly sunny.15 mph62%30.03 "Hg10 mi
11:53 AM41 °FPartly sunny.10 mph70%30.03 "Hg10 mi
10:53 AM42 °FPartly sunny.5 mph73%30.01 "Hg10 mi
9:55 AM38 °FMostly cloudy.No wind79%29.98 "Hg10 mi
8:53 AM37 °FPartly sunny.3 mph82%29.96 "Hg10 mi
7:53 AM36 °FMostly cloudy.No wind82%29.94 "Hg10 mi
6:53 AM35 °FDrizzle. Mostly cloudy.No wind85%29.92 "Hg9 mi
5:53 AM35 °FDrizzle. Mostly cloudy.No wind88%29.90 "Hg7 mi
4:53 AM35 °FMostly cloudy.No wind82%29.89 "Hg10 mi
3:53 AM35 °FMostly cloudy.No wind82%29.91 "Hg10 mi
2:53 AM35 °FMostly cloudy.No wind82%29.93 "Hg10 mi
1:53 AM35 °FMostly cloudy.No wind82%29.94 "Hg10 mi
Weather by CustomWeather, © 2014

See weather overviewHow to use our weather pages